Location: Rumah Dana
(3.1167°N, 113.0167°E)
Time: 03:47:51
(UTC+00:00)

ARIANE 5 R/B - Pass Details

Date: 20 January 2026
Orbit: 243 x 21055 km, 6.3° (Epoch: 11 February)

Event Time Altitude Azimuth Distance (km) Brightness Sun altitude
Rises 10:38:27 0° 243° (WSW) 2,229 7.2 -1.0°
Reaches altitude 10° 10:39:48 10° 232° (SW) 1,671 5.4 -1.3°
Maximum altitude 10:43:01 39° 160° (SSE) 1,295 3.2 -2.0°
Drops below altitude 10° 10:54:50 10° 95° (E) 6,066 6.0 -4.8°
Enters shadow 11:04:34 - 90° (E) 9,665 7.0 -7.1°
